Date,TemperatureHighF,TemperatureAvgF,TemperatureLowF,DewpointHighF,DewpointAvgF,DewpointLowF,HumidityHigh,HumidityAvg,HumidityLow,PressureMaxIn,PressureMinIn,WindSpeedMaxMPH,WindSpeedAvgMPH,GustSpeedMaxMPH,PrecipitationSumIn
2013-1-7,41,36,28,-100,-100,-100,0,0,100,0.00,40.00,0,-999,0,0.00
2013-1-8,39,39,39,-100,-100,-100,0,0,100,0.00,40.00,0,-999,0,0.00
2013-1-9,41,40,38,-100,-100,-100,0,0,100,0.00,40.00,0,-999,0,0.00
2013-1-22,49,40,27,-100,-100,-100,0,0,100,0.00,40.00,0,-999,0,0.00
2013-4-17,29,21,10,-100,-100,-100,0,0,100,0.00,40.00,0,-999,0,0.00
2013-4-18,23,12,4,-100,-100,-100,0,0,100,0.00,40.00,0,-999,0,0.01
2013-4-19,38,24,8,-100,-100,-100,0,0,100,0.00,40.00,0,-999,0,0.01
2013-4-20,39,29,22,-100,-100,-100,0,0,100,0.00,40.00,0,-999,0,0.01
2013-4-21,45,34,17,-100,-100,-100,0,0,100,0.00,40.00,0,-999,0,0.00
2013-4-22,46,39,32,-100,-100,-100,0,0,100,0.00,40.00,0,-999,0,0.01
2013-4-23,34,30,26,-100,-100,-100,0,0,100,0.00,40.00,0,-999,0,0.00
2013-4-24,40,37,29,-100,-100,-100,0,0,100,0.00,40.00,0,-999,0,0.00
2013-4-25,44,36,28,-100,-100,-100,0,0,100,0.00,40.00,0,-999,0,0.00
2013-4-26,47,39,24,-100,-100,-100,0,0,100,0.00,40.00,0,-999,0,0.00
2013-4-27,50,37,23,-100,-100,-100,0,0,100,0.00,40.00,0,-999,0,0.00
2013-4-28,55,42,25,-100,-100,-100,0,0,100,0.00,40.00,0,-999,0,0.00
2013-4-29,55,48,33,-100,-100,-100,0,0,100,0.00,40.00,0,-999,0,0.00
2013-4-30,54,46,37,-100,-100,-100,0,0,100,0.00,40.00,0,-999,0,0.00
2013-5-1,45,38,24,-100,-100,-100,0,0,100,0.00,40.00,0,-999,0,0.00
2013-5-2,43,32,19,-100,-100,-100,0,0,100,0.00,40.00,0,-999,0,0.00
2013-5-3,50,41,19,-100,-100,-100,0,0,100,0.00,40.00,0,-999,0,0.00
2013-5-4,48,38,25,-100,-100,-100,0,0,100,0.00,40.00,0,-999,0,0.00
2013-5-5,47,39,34,-100,-100,-100,0,0,100,0.00,40.00,0,-999,0,0.01
2013-5-6,41,35,32,-100,-100,-100,0,0,100,0.00,40.00,0,-999,0,0.00
2013-5-7,41,34,30,-100,-100,-100,0,0,100,0.00,40.00,0,-999,0,0.01
2013-5-8,38,32,26,-100,-100,-100,0,0,100,0.00,40.00,0,-999,0,0.01
2013-5-9,42,33,28,-100,-100,-100,0,0,100,0.00,40.00,0,-999,0,0.01
2013-5-10,45,35,23,-100,-100,-100,0,0,100,0.00,40.00,0,-999,0,0.01
2013-5-11,50,37,26,-100,-100,-100,0,0,100,0.00,40.00,0,-999,0,0.00
2013-5-12,55,43,31,-100,-100,-100,0,0,100,0.00,40.00,0,-999,0,0.01
2013-5-13,60,46,32,-100,-100,-100,0,0,100,0.00,40.00,0,-999,0,0.00
2013-5-14,60,45,33,-100,-100,-100,0,0,100,0.00,40.00,0,-999,0,0.00
2013-5-15,58,46,36,-100,-100,-100,0,0,100,0.00,40.00,0,-999,0,0.01
2013-5-16,57,49,35,-100,-100,-100,0,0,100,0.00,40.00,0,-999,0,0.00
2013-5-17,56,48,34,-100,-100,-100,0,0,100,0.00,40.00,0,-999,0,0.00
2013-5-18,47,40,32,-100,-100,-100,0,0,100,0.00,40.00,0,-999,0,0.00
2013-5-19,43,34,28,-100,-100,-100,0,0,100,0.00,40.00,0,-999,0,0.00
2013-5-20,47,38,25,-100,-100,-100,0,0,100,0.00,40.00,0,-999,0,0.00
2013-5-21,50,43,29,-100,-100,-100,0,0,100,0.00,40.00,0,-999,0,0.01
2013-5-22,58,45,32,-100,-100,-100,0,0,100,0.00,40.00,0,-999,0,0.00
2013-5-23,59,51,40,-100,-100,-100,0,0,100,0.00,40.00,0,-999,0,0.00
2013-5-24,59,48,34,-100,-100,-100,0,0,100,0.00,40.00,0,-999,0,0.00
2013-5-25,60,49,33,-100,-100,-100,0,0,100,0.00,40.00,0,-999,0,0.00
2013-5-26,58,47,35,-100,-100,-100,0,0,100,0.00,40.00,0,-999,0,0.00
2013-5-27,56,46,34,-100,-100,-100,0,0,100,0.00,40.00,0,-999,0,0.00
2013-5-28,55,44,32,-100,-100,-100,0,0,100,0.00,40.00,0,-999,0,0.00
2013-5-29,48,40,31,-100,-100,-100,0,0,100,0.00,40.00,0,-999,0,0.00
2013-5-30,51,42,31,-100,-100,-100,0,0,100,0.00,40.00,0,-999,0,0.00
2013-5-31,51,45,33,-100,-100,-100,0,0,100,0.00,40.00,0,-999,0,0.00
2013-6-1,62,46,29,-100,-100,-100,0,0,100,0.00,40.00,0,-999,0,0.00
2013-6-2,61,49,34,-100,-100,-100,0,0,100,0.00,40.00,0,-999,0,0.00
2013-6-3,58,51,43,-100,-100,-100,0,0,100,0.00,40.00,0,-999,0,0.01
2013-6-4,63,52,38,-100,-100,-100,0,0,100,0.00,40.00,0,-999,0,0.00
2013-6-5,61,52,37,-100,-100,-100,0,0,100,0.00,40.00,0,-999,0,0.00
2013-6-6,63,53,35,-100,-100,-100,0,0,100,0.00,40.00,0,-999,0,0.00
2013-6-7,62,48,36,-100,-100,-100,0,0,100,0.00,40.00,0,-999,0,0.00
2013-6-8,66,54,39,-100,-100,-100,0,0,100,0.00,40.00,0,-999,0,0.00
2013-6-9,71,58,41,-100,-100,-100,0,0,100,0.00,40.00,0,-999,0,0.01
2013-6-10,71,59,41,-100,-100,-100,0,0,100,0.00,40.00,0,-999,0,0.00
2013-6-11,67,57,46,-100,-100,-100,0,0,100,0.00,40.00,0,-999,0,0.00
2013-6-12,68,57,41,-100,-100,-100,0,0,100,0.00,40.00,0,-999,0,0.00
2013-6-13,67,56,43,-100,-100,-100,0,0,100,0.00,40.00,0,-999,0,0.00
2013-6-14,64,54,41,-100,-100,-100,0,0,100,0.00,40.00,0,-999,0,0.00
2013-6-15,60,50,37,-100,-100,-100,0,0,100,0.00,40.00,0,-999,0,0.00
2013-6-16,62,50,37,-100,-100,-100,0,0,100,0.00,40.00,0,-999,0,0.00
2013-6-17,61,52,41,-100,-100,-100,0,0,100,0.00,40.00,0,-999,0,0.00
2013-6-18,63,52,35,-100,-100,-100,0,0,100,0.00,40.00,0,-999,0,0.00
2013-6-19,65,56,47,-100,-100,-100,0,0,100,0.00,40.00,0,-999,0,0.00
2013-6-20,61,50,43,-100,-100,-100,0,0,100,0.00,40.00,0,-999,0,0.00
2013-6-22,64,58,42,-100,-100,-100,0,0,100,0.00,40.00,0,-999,0,0.00
2013-6-23,62,52,36,-100,-100,-100,0,0,100,0.00,40.00,0,-999,0,0.00
2013-6-24,62,54,43,-100,-100,-100,0,0,100,0.00,40.00,0,-999,0,0.00
2013-6-25,66,54,42,-100,-100,-100,0,0,100,0.00,40.00,0,-999,0,0.00
2013-6-26,73,59,40,-100,-100,-100,0,0,100,0.00,40.00,0,-999,0,0.00
2013-6-27,76,58,44,-100,-100,-100,0,0,100,0.00,40.00,0,-999,0,0.00
2013-6-28,71,59,45,-100,-100,-100,0,0,100,0.00,40.00,0,-999,0,0.00
2013-6-29,71,56,44,-100,-100,-100,0,0,100,0.00,40.00,0,-999,0,0.00
2013-6-30,65,56,42,-100,-100,-100,0,0,100,0.00,40.00,0,-999,0,0.00
2013-7-1,72,56,42,-100,-100,-100,0,0,100,0.00,40.00,0,-999,0,0.00
2013-7-2,69,57,44,-100,-100,-100,0,0,100,0.00,40.00,0,-999,0,0.01
2013-7-3,71,58,40,-100,-100,-100,0,0,100,0.00,40.00,0,-999,0,0.00
2013-7-4,68,60,48,-100,-100,-100,0,0,100,0.00,40.00,0,-999,0,0.00
2013-7-5,65,58,51,-100,-100,-100,0,0,100,0.00,40.00,0,-999,0,0.00
2013-7-6,68,54,44,-100,-100,-100,0,0,100,0.00,40.00,0,-999,0,0.00
2013-7-7,69,57,45,-100,-100,-100,0,0,100,0.00,40.00,0,-999,0,0.00
2013-7-8,71,56,45,-100,-100,-100,0,0,100,0.00,40.00,0,-999,0,0.00
2013-7-9,71,57,44,-100,-100,-100,0,0,100,0.00,40.00,0,-999,0,0.00
2013-7-10,71,58,49,-100,-100,-100,0,0,100,0.00,40.00,0,-999,0,0.00
2013-7-11,67,55,46,-100,-100,-100,0,0,100,0.00,40.00,0,-999,0,0.00
2013-7-12,62,52,44,-100,-100,-100,0,0,100,0.00,40.00,0,-999,0,0.01
2013-7-13,62,53,44,-100,-100,-100,0,0,100,0.00,40.00,0,-999,0,0.01
2013-7-14,62,53,45,-100,-100,-100,0,0,100,0.00,40.00,0,-999,0,0.02
2013-7-15,62,51,44,-100,-100,-100,0,0,100,0.00,40.00,0,-999,0,0.02
2013-7-16,56,50,44,-100,-100,-100,0,0,100,0.00,40.00,0,-999,0,0.89
2013-7-17,63,53,47,-100,-100,-100,0,0,100,0.00,40.00,0,-999,0,0.89
2013-7-18,65,53,45,-100,-100,-100,0,0,100,0.00,40.00,0,-999,0,0.01
2013-7-19,62,50,43,-100,-100,-100,0,0,100,0.00,40.00,0,-999,0,0.01
2013-7-20,70,55,43,-100,-100,-100,0,0,100,0.00,40.00,0,-999,0,0.01
2013-7-21,70,55,44,-100,-100,-100,0,0,100,0.00,40.00,0,-999,0,0.01
2013-7-22,69,55,43,-100,-100,-100,0,0,100,0.00,40.00,0,-999,0,0.00
2013-7-23,71,55,43,-100,-100,-100,0,0,100,0.00,40.00,0,-999,0,0.00
2013-7-24,67,55,48,-100,-100,-100,0,0,100,0.00,40.00,0,-999,0,0.00
2013-7-25,68,57,44,-100,-100,-100,0,0,100,0.00,40.00,0,-999,0,0.00
2013-7-26,70,58,45,-100,-100,-100,0,0,100,0.00,40.00,0,-999,0,0.00
2013-7-27,63,53,48,-100,-100,-100,0,0,100,0.00,40.00,0,-999,0,0.01
2013-7-28,53,49,46,-100,-100,-100,0,0,100,0.00,40.00,0,-999,0,0.04
2013-7-29,59,50,43,-100,-100,-100,0,0,100,0.00,40.00,0,-999,0,0.02
2013-7-30,60,50,40,-100,-100,-100,0,0,100,0.00,40.00,0,-999,0,0.01
2013-7-31,67,53,40,-100,-100,-100,0,0,100,0.00,40.00,0,-999,0,0.00
2013-8-1,57,51,46,-100,-100,-100,0,0,100,0.00,40.00,0,-999,0,0.01
2013-8-2,65,53,40,-100,-100,-100,0,0,100,0.00,40.00,0,-999,0,0.02
2013-8-3,65,52,45,-100,-100,-100,0,0,100,0.00,40.00,0,-999,0,0.01
2013-8-4,62,52,40,-100,-100,-100,0,0,100,0.00,40.00,0,-999,0,0.01
2013-8-5,60,52,44,-100,-100,-100,0,0,100,0.00,40.00,0,-999,0,0.01
2013-8-6,61,50,43,-100,-100,-100,0,0,100,0.00,40.00,0,-999,0,0.01
2013-8-7,52,47,44,-100,-100,-100,0,0,100,0.00,40.00,0,-999,0,0.01
2013-8-8,55,47,41,-100,-100,-100,0,0,100,0.00,40.00,0,-999,0,0.01
2013-8-9,58,47,36,-100,-100,-100,0,0,100,0.00,40.00,0,-999,0,0.00
2013-8-10,58,44,37,-100,-100,-100,0,0,100,0.00,40.00,0,-999,0,0.03
2013-8-11,61,44,35,-100,-100,-100,0,0,100,0.00,40.00,0,-999,0,0.04
2013-8-12,57,48,39,-100,-100,-100,0,0,100,0.00,40.00,0,-999,0,0.01
2013-8-13,61,49,37,-100,-100,-100,0,0,100,0.00,40.00,0,-999,0,0.00
2013-8-14,62,49,38,-100,-100,-100,0,0,100,0.00,40.00,0,-999,0,0.00
2013-8-15,64,52,38,-100,-100,-100,0,0,100,0.00,40.00,0,-999,0,0.00
2013-8-16,69,55,40,-100,-100,-100,0,0,100,0.00,40.00,0,-999,0,0.01
2013-8-17,64,56,46,-100,-100,-100,0,0,100,0.00,40.00,0,-999,0,0.00
2013-8-18,61,54,49,-100,-100,-100,0,0,100,0.00,40.00,0,-999,0,0.00
2013-8-19,68,52,42,-100,-100,-100,0,0,100,0.00,40.00,0,-999,0,0.00
2013-8-20,66,54,44,-100,-100,-100,0,0,100,0.00,40.00,0,-999,0,0.00
2013-8-21,65,50,41,-100,-100,-100,0,0,100,0.00,40.00,0,-999,0,0.01
2013-8-22,63,53,43,-100,-100,-100,0,0,100,0.00,40.00,0,-999,0,0.01
2013-8-23,63,54,44,-100,-100,-100,0,0,100,0.00,40.00,0,-999,0,0.00
2013-8-24,55,50,47,-100,-100,-100,0,0,100,0.00,40.00,0,-999,0,0.01
2013-8-25,51,49,47,-100,-100,-100,0,0,100,0.00,40.00,0,-999,0,0.02
2013-8-26,59,52,49,-100,-100,-100,0,0,100,0.00,40.00,0,-999,0,0.01
2013-8-27,64,53,44,-100,-100,-100,0,0,100,0.00,40.00,0,-999,0,0.00
2013-8-28,66,62,47,-100,-100,-100,0,0,100,0.00,40.00,0,-999,0,0.00
2013-8-29,64,50,43,-100,-100,-100,0,0,100,0.00,40.00,0,-999,0,0.01
2013-8-30,67,56,48,-100,-100,-100,0,0,100,0.00,40.00,0,-999,0,0.00
2013-8-31,66,51,44,-100,-100,-100,0,0,100,0.00,40.00,0,-999,0,0.00
2013-9-1,67,53,42,-100,-100,-100,0,0,100,0.00,40.00,0,-999,0,0.00
2013-9-2,65,54,46,-100,-100,-100,0,0,100,0.00,40.00,0,-999,0,0.00
2013-9-3,63,51,44,-100,-100,-100,0,0,100,0.00,40.00,0,-999,0,0.00
2013-9-4,67,57,49,-100,-100,-100,0,0,100,0.00,40.00,0,-999,0,0.00
2013-9-5,68,56,44,-100,-100,-100,0,0,100,0.00,40.00,0,-999,0,0.00
2013-9-6,67,54,42,-100,-100,-100,0,0,100,0.00,40.00,0,-999,0,0.00
2013-9-7,67,56,44,-100,-100,-100,0,0,100,0.00,40.00,0,-999,0,0.00
2013-9-8,60,52,44,-100,-100,-100,0,0,100,0.00,40.00,0,-999,0,0.00
2013-9-9,55,50,43,-100,-100,-100,0,0,100,0.00,40.00,0,-999,0,0.01
2013-9-10,50,47,45,-100,-100,-100,0,0,100,0.00,40.00,0,-999,0,0.02
2013-9-11,54,50,42,-100,-100,-100,0,0,100,0.00,40.00,0,-999,0,0.01
2013-9-12,55,45,37,-100,-100,-100,0,0,100,0.00,40.00,0,-999,0,0.00
2013-9-13,57,47,40,-100,-100,-100,0,0,100,0.00,40.00,0,-999,0,0.02
2013-9-14,50,44,41,-100,-100,-100,0,0,100,0.00,40.00,0,-999,0,0.03
2013-9-15,53,43,38,-100,-100,-100,0,0,100,0.00,40.00,0,-999,0,0.01
2013-9-16,58,46,41,-100,-100,-100,0,0,100,0.00,40.00,0,-999,0,0.00
2013-9-17,58,48,42,-100,-100,-100,0,0,100,0.00,40.00,0,-999,0,0.00
2013-9-18,49,46,43,-100,-100,-100,0,0,100,0.00,40.00,0,-999,0,0.02
2013-9-19,56,46,38,-100,-100,-100,0,0,100,0.00,40.00,0,-999,0,0.01
2013-9-20,60,48,34,-100,-100,-100,0,0,100,0.00,40.00,0,-999,0,0.00
2013-9-21,57,47,38,-100,-100,-100,0,0,100,0.00,40.00,0,-999,0,0.00
2013-9-22,48,42,33,-100,-100,-100,0,0,100,0.00,40.00,0,-999,0,0.04
2013-9-23,45,36,30,-100,-100,-100,0,0,100,0.00,40.00,0,-999,0,0.03
2013-9-24,58,41,26,-100,-100,-100,0,0,100,0.00,40.00,0,-999,0,0.01
2013-9-25,55,50,42,-100,-100,-100,0,0,100,0.00,40.00,0,-999,0,0.00
2013-9-26,53,46,39,-100,-100,-100,0,0,100,0.00,40.00,0,-999,0,0.00
2013-9-27,45,34,24,-100,-100,-100,0,0,100,0.00,40.00,0,-999,0,0.02
2013-10-2,56,46,31,-100,-100,-100,0,0,100,0.00,40.00,0,-999,0,0.00
2013-10-3,49,44,38,-100,-100,-100,0,0,100,0.00,40.00,0,-999,0,0.00
2013-10-4,41,30,18,-100,-100,-100,0,0,100,0.00,40.00,0,-999,0,0.00
2013-10-5,45,33,22,-100,-100,-100,0,0,100,0.00,40.00,0,-999,0,0.00
2013-10-6,59,37,26,-100,-100,-100,0,0,100,0.00,40.00,0,-999,0,0.01
2013-10-7,58,43,30,-100,-100,-100,0,0,100,0.00,40.00,0,-999,0,0.00
2013-10-8,50,44,34,-100,-100,-100,0,0,100,0.00,40.00,0,-999,0,0.00
2013-10-9,45,41,35,-100,-100,-100,0,0,100,0.00,40.00,0,-999,0,0.00
2013-10-10,36,34,30,-100,-100,-100,0,0,100,0.00,40.00,0,-999,0,0.04
2013-10-11,38,32,24,-100,-100,-100,0,0,100,0.00,40.00,0,-999,0,0.02
2013-10-12,41,27,16,-100,-100,-100,0,0,100,0.00,40.00,0,-999,0,0.00
2013-10-13,45,40,35,-100,-100,-100,0,0,100,0.00,40.00,0,-999,0,0.00
2013-10-21,37,30,28,-100,-100,-100,0,0,100,0.00,40.00,0,-999,0,0.00
2013-10-22,52,33,24,-100,-100,-100,0,0,100,0.00,40.00,0,-999,0,0.00
2013-10-23,26,26,26,-100,-100,-100,0,0,100,0.00,40.00,0,-999,0,0.00
2013-10-24,48,44,39,-100,-100,-100,0,0,100,0.00,40.00,0,-999,0,0.00
2013-10-25,36,34,32,-100,-100,-100,0,0,100,0.00,40.00,0,-999,0,0.01
2013-10-26,42,34,27,-100,-100,-100,0,0,100,0.00,40.00,0,-999,0,0.00
2013-10-27,40,38,36,-100,-100,-100,0,0,100,0.00,40.00,0,-999,0,0.00
2013-11-12,50,35,26,-100,-100,-100,0,0,100,0.00,40.00,0,-999,0,0.00
2013-11-13,39,34,26,-100,-100,-100,0,0,100,0.00,40.00,0,-999,0,0.00
2013-11-14,31,28,25,-100,-100,-100,0,0,100,0.00,40.00,0,-999,0,0.00
2013-11-15,29,29,29,-100,-100,-100,0,0,100,0.00,40.00,0,-999,0,0.00
2013-11-16,27,26,25,-100,-100,-100,0,0,100,0.00,40.00,0,-999,0,0.00
2013-11-17,37,37,37,-100,-100,-100,0,0,100,0.00,40.00,0,-999,0,0.00
2013-11-18,45,23,12,-100,-100,-100,0,0,100,0.00,40.00,0,-999,0,0.00
2013-11-19,40,31,20,-100,-100,-100,0,0,100,0.00,40.00,0,-999,0,0.00
2013-11-20,30,27,21,-100,-100,-100,0,0,100,0.00,40.00,0,-999,0,0.01
2013-11-21,31,29,28,-100,-100,-100,0,0,100,0.00,40.00,0,-999,0,0.02
2013-11-22,30,28,27,-100,-100,-100,0,0,100,0.00,40.00,0,-999,0,0.00
2013-11-23,35,30,27,-100,-100,-100,0,0,100,0.00,40.00,0,-999,0,0.03
2013-11-24,31,23,19,-100,-100,-100,0,0,100,0.00,40.00,0,-999,0,0.02
2013-11-25,24,22,21,-100,-100,-100,0,0,100,0.00,40.00,0,-999,0,0.00
2013-11-26,35,24,17,-100,-100,-100,0,0,100,0.00,40.00,0,-999,0,0.00
2013-11-27,43,26,18,-100,-100,-100,0,0,100,0.00,40.00,0,-999,0,0.00
2013-11-28,40,26,17,-100,-100,-100,0,0,100,0.00,40.00,0,-999,0,0.00
2013-11-29,36,21,15,-100,-100,-100,0,0,100,0.00,40.00,0,-999,0,0.00
2013-11-30,31,27,20,-100,-100,-100,0,0,100,0.00,40.00,0,-999,0,0.00
2013-12-1,41,24,12,-100,-100,-100,0,0,100,0.00,40.00,0,-999,0,0.00
2013-12-2,39,36,31,-100,-100,-100,0,0,100,0.00,40.00,0,-999,0,0.00
2013-12-3,29,28,26,-100,-100,-100,0,0,100,0.00,40.00,0,-999,0,0.00
2013-12-4,26,20,8,-100,-100,-100,0,0,100,0.00,40.00,0,-999,0,0.06
2013-12-5,9,2,-5,-100,-100,-100,0,0,100,0.00,40.00,0,-999,0,0.00
2013-12-6,11,2,-6,-100,-100,-100,0,0,100,0.00,40.00,0,-999,0,0.00
2013-12-7,13,10,8,-100,-100,-100,0,0,100,0.00,40.00,0,-999,0,0.00
2013-12-8,9,2,-3,-100,-100,-100,0,0,100,0.00,40.00,0,-999,0,0.03
2013-12-9,9,-4,-16,-100,-100,-100,0,0,100,0.00,40.00,0,-999,0,0.00
2013-12-10,31,18,2,-100,-100,-100,0,0,100,0.00,40.00,0,-999,0,0.00
2013-12-11,36,16,4,-100,-100,-100,0,0,100,0.00,40.00,0,-999,0,0.00
2013-12-12,11,11,11,-100,-100,-100,0,0,100,0.00,40.00,0,-999,0,0.00
2013-12-13,34,23,11,-100,-100,-100,0,0,100,0.00,40.00,0,-999,0,0.00
2013-12-14,29,18,7,-100,-100,-100,0,0,100,0.00,40.00,0,-999,0,0.00
2013-12-15,35,30,26,-100,-100,-100,0,0,100,0.00,40.00,0,-999,0,0.00
2013-12-16,43,33,26,-100,-100,-100,0,0,100,0.00,40.00,0,-999,0,0.00
2013-12-17,28,24,19,-100,-100,-100,0,0,100,0.00,40.00,0,-999,0,0.00
2013-12-18,35,35,35,-100,-100,-100,0,0,100,0.00,40.00,0,-999,0,0.00
2013-12-19,32,27,24,-100,-100,-100,0,0,100,0.00,40.00,0,-999,0,0.00
2013-12-20,25,23,22,-100,-100,-100,0,0,100,0.00,40.00,0,-999,0,0.01
2013-12-25,29,22,17,-100,-100,-100,0,0,100,0.00,40.00,0,-999,0,0.00
2013-12-26,37,29,16,-100,-100,-100,0,0,100,0.00,40.00,0,-999,0,0.00
2013-12-29,10,10,10,-100,-100,-100,0,0,100,0.00,40.00,0,-999,0,0.00
2013-12-30,29,29,29,-100,-100,-100,0,0,100,0.00,40.00,0,-999,0,0.00
2013-12-31,30,26,18,-100,-100,-100,0,0,100,0.00,40.00,0,-999,0,0.00
2014-1-1,33,28,26,-100,-100,-100,0,0,100,0.00,40.00,0,-999,0,0.00